Location: Remedello Sotto
(45.2500°N, 10.3667°E)
Time: 11:33:57
(UTC+00:00)

Cosmos 1850 Rocket - Pass Details

Date: 03 February 2023
Orbit: 753 x 784 km, 74.0° (Epoch: 21 March)

Event Time Altitude Azimuth Distance (km) Brightness Sun altitude
Rises 18:22:28 0° 196° (SSW) 3,203 7.5 -20.3°
Reaches altitude 10° 18:24:49 10° 195° (SSW) 2,278 6.7 -20.7°
Maximum altitude 18:29:59 80° 109° (ESE) 771 3.8 -21.6°
Enters shadow 18:32:53 27° 25° (NNE) 1,432 5.1 -22.2°
